Simultaneous Nadir Overpasses (SNOs) Predictions

Prediction of SNOs between AQUA and GOES-15 Satellite Orbit:

Table of predicted SNOs for the next 14.0 days since TLE Epoch: 5/5/2017
Index Date Time (AQUA) AQUA Lat,Lon GOES-15 Lat,Lon Distance(km) Time Diff (sec)
1 05/06/2017 10:31:56 -0.18,-134.13 0.07,-135.32 135.79 80
2 05/06/2017 22:53:20 -0.89,-139.32 -0.06,-135.36 450.32 80
3 05/08/2017 10:19:43 -0.79,-131.16 0.07,-135.28 468.19 80
4 05/08/2017 22:41:07 -0.28,-136.36 -0.06,-135.32 118.05 80
5 05/10/2017 22:28:54 0.33,-133.40 -0.06,-135.28 213.63 80
6 05/11/2017 10:50:10 0.74,-138.56 0.05,-135.22 379.42 80
7 05/13/2017 10:37:57 0.12,-135.60 0.05,-135.16 48.57 80
8 05/15/2017 10:25:44 -0.50,-132.63 0.05,-135.11 281.80 80
9 05/15/2017 22:47:07 -0.64,-137.82 -0.05,-135.13 305.30 80
10 05/17/2017 22:34:54 -0.01,-134.85 -0.05,-135.07 24.37 80




NCC Satellite Simultaneous Nadir Overpasses (SNOs) Prediction Service
